Regional Weather Roundup
Issued by NWS State College, PA

Home | Current Version | Previous Version | Text Only | Print | Product List | Glossary Off
Versions: 1 2 3 4 5 6 7 8 9 10 11 12 13 14 15 16 17 18 19 20 21 22 23 24 25 26 27 28 29 30 31 32 33 34 35 36 37 38 39 40 41 42 43 44 45 46 47 48 49 50

000
ASUS41 KCTP 010203
RWRCTP

REGIONAL WEATHER ROUNDUP
NATIONAL WEATHER SERVICE STATE COLLEGE PA
900 PM EST SAT JAN 31 2015

Note: "fair" indicates few or no clouds below 12,000 feet with no
significant weather and/or obstructions to visibility.

* = STATION THAT DOES NOT REPORT PRECIPITATION /E.G. RAIN...SNOW...ETC/
    THUNDER OR FOG.

PAZ002>004-007>009-013>016-020>023-029>032-010300-
WESTERN PENNSYLVANIA

CITY           SKY/WX    TMP DP  RH WIND       PRES   REMARKS
ERIE           CLOUDY    27  15  61 SW10      30.20F
MEADVILLE      CLOUDY    23  14  68 SW7       30.17F WCI  15
FRANKLIN*      MOCLDY    19  12  73 SW7       30.19F WCI  10
NEW CASTLE     CLOUDY    24  15  68 CALM      30.22F
BEAVER COUNTY  CLOUDY    27  18  69 SW5       30.21F
BUTLER*        MOCLDY    21  12  68 SW3       30.23F
PITTSBURGH INT CLOUDY    25  16  68 SW5       30.22F
PITTSBURGH     CLOUDY    25  12  58 S8        30.22F
INDIANA*       PTCLDY    14  10  85 CALM      30.24F
LATROBE        PTCLDY    18  12  79 CALM      30.25F
WASHINGTON CO* MOCLDY    18  14  86 SW3       30.24F
$$

PAZ004>006-010>012-017>019-024>028-033>037-041-042-045-046-049>053-010300-
CENTRAL PENNSYLVANIA

CITY           SKY/WX    TMP DP  RH WIND       PRES   REMARKS
BRADFORD       MOCLDY    18  10  71 SW3       30.12S
DUBOIS         PTCLDY    12   8  84 SW3       30.15F
CLEARFIELD     PTCLDY    16   9  74 W5        30.19S WCI   9
JOHNSTOWN      MOCLDY    19  10  68 W14       30.13F WCI   6
ALTOONA        PTCLDY    19   8  62 S6        30.19F WCI  11
STATE COLLEGE  CLEAR     19  10  68 W7        30.20F WCI  10
WILLIAMSPORT   CLEAR     19   6  57 W7        30.22S WCI  10
SELINSGROVE    CLEAR     13   7  77 CALM      30.24F
FT INDIANTOWN  CLEAR     24   7  48 W9        30.23S WCI  15
CAPITAL CITY   CLEAR     17   7  64 SW7       30.25S WCI   8
HARRISBURG     PTCLDY    17   8  67 CALM      30.25S
YORK           CLEAR      9   4  80 CALM      30.24S
$$

PAZ038>040-043-044-047-048-054-055-060>062-067>071-010300-
EASTERN PENNSYLVANIA

CITY           SKY/WX    TMP DP  RH WIND       PRES   REMARKS
SCRANTON       PTCLDY    16   3  56 N5        30.17S WCI   9
MOUNT POCONO   CLEAR     13   3  64 NW10      30.07S WCI   0
ALLENTOWN      FAIR      16   3  56 SW3       30.21S
QUAKERTOWN*    FAIR      19   7  58 CALM      30.21S
READING        CLEAR     22   6  50 W7        30.22S WCI  13
LANCASTER      CLEAR     20   5  52 W5        30.23F WCI  13
COATESVILLE    CLEAR     23   9  54 W5        30.22S
POTTSTOWN      CLEAR     20   7  57 W5        30.23S WCI  13
BLUE BELL      CLEAR     25  10  54 CALM      30.22S
DOYLESTOWN     CLEAR     19   6  57 SW3       30.21S
WILLOW GROVE   NOT AVBL
NORTH PHILA    CLEAR     24   6  46 W6        30.26R
PHILADELPHIA   CLEAR     25   9  50 W9        30.26S
$$


USA.gov is the U.S. government's official web portal to all federal, state and local government web resources and services.